Time,TemperatureF,DewpointF,PressureIn,WindDirection,WindDirectionDegrees,WindSpeedMPH,WindSpeedGustMPH,Humidity,HourlyPrecipIn,Conditions,Clouds,dailyrainin,SoftwareType,DateUTC
2013-08-05 00:01:00,58.9,57.5,30.07,South,172,0.0,2.0,95,0.00,,---,0.00,VWS V14.00,2013-08-05 04:01:00,
2013-08-05 00:03:00,58.9,57.5,30.07,South,172,0.0,0.0,95,0.00,,---,0.00,VWS V14.00,2013-08-05 04:03:00,
2013-08-05 00:04:00,58.9,57.5,30.07,South,172,0.0,0.0,95,0.00,,---,0.00,VWS V14.00,2013-08-05 04:04:00,
2013-08-05 00:05:00,58.8,57.4,30.06,South,172,0.0,0.0,95,0.00,,---,0.00,VWS V14.00,2013-08-05 04:05:00,
2013-08-05 00:10:00,58.7,57.3,30.06,South,172,0.0,0.0,95,0.00,,---,0.00,VWS V14.00,2013-08-05 04:10:00,
2013-08-05 00:15:00,58.7,57.6,30.07,South,172,0.0,0.0,96,0.00,,---,0.00,VWS V14.00,2013-08-05 04:15:00,
2013-08-05 00:20:00,58.8,57.7,30.06,South,172,0.0,0.0,96,0.00,,---,0.00,VWS V14.00,2013-08-05 04:20:00,
2013-08-05 00:25:00,58.7,57.6,30.06,South,172,0.0,0.0,96,0.00,,---,0.00,VWS V14.00,2013-08-05 04:25:00,
2013-08-05 00:30:00,58.6,57.5,30.06,South,172,0.0,0.0,96,0.00,,---,0.00,VWS V14.00,2013-08-05 04:30:00,
2013-08-05 00:36:00,58.5,57.4,30.07,South,172,0.0,0.0,96,0.00,,---,0.00,VWS V14.00,2013-08-05 04:36:00,
2013-08-05 00:40:00,58.5,57.4,30.06,South,172,0.0,0.0,96,0.00,,---,0.00,VWS V14.00,2013-08-05 04:40:00,
2013-08-05 00:46:00,58.6,57.5,30.06,South,172,0.0,0.0,96,0.00,,---,0.00,VWS V14.00,2013-08-05 04:46:00,
2013-08-05 00:52:00,58.5,57.4,30.05,South,172,0.0,0.0,96,0.00,,---,0.00,VWS V14.00,2013-08-05 04:52:00,
2013-08-05 00:57:00,58.4,57.3,30.06,South,172,0.0,0.0,96,0.00,,---,0.00,VWS V14.00,2013-08-05 04:57:00,
2013-08-05 01:02:00,58.4,57.3,30.06,South,172,0.0,0.0,96,0.00,,---,0.00,VWS V14.00,2013-08-05 05:02:00,
2013-08-05 01:07:00,58.3,57.2,30.06,South,172,0.0,0.0,96,0.00,,---,0.00,VWS V14.00,2013-08-05 05:07:00,
2013-08-05 01:12:00,58.4,57.3,30.06,South,172,0.0,0.0,96,0.00,,---,0.00,VWS V14.00,2013-08-05 05:12:00,
2013-08-05 01:17:00,58.5,57.4,30.06,South,172,0.0,0.0,96,0.00,,---,0.00,VWS V14.00,2013-08-05 05:17:00,
2013-08-05 01:23:00,58.5,57.4,30.06,South,172,0.0,1.0,96,0.00,,---,0.00,VWS V14.00,2013-08-05 05:23:00,
2013-08-05 01:27:00,58.5,57.4,30.06,South,172,0.0,1.0,96,0.00,,---,0.00,VWS V14.00,2013-08-05 05:27:00,
2013-08-05 01:33:00,58.6,57.5,30.06,South,172,0.0,0.0,96,0.00,,---,0.00,VWS V14.00,2013-08-05 05:33:00,
2013-08-05 01:38:00,58.6,57.5,30.06,South,172,0.0,0.0,96,0.00,,---,0.00,VWS V14.00,2013-08-05 05:38:00,
2013-08-05 01:43:00,58.6,57.8,30.06,South,172,0.0,0.0,97,0.00,,---,0.00,VWS V14.00,2013-08-05 05:43:00,
2013-08-05 01:48:00,58.6,57.5,30.06,South,172,0.0,0.0,96,0.00,,---,0.00,VWS V14.00,2013-08-05 05:48:00,
2013-08-05 01:53:00,58.7,57.8,30.06,South,172,0.0,0.0,97,0.00,,---,0.00,VWS V14.00,2013-08-05 05:53:00,
2013-08-05 01:58:00,58.8,57.7,30.06,South,172,0.0,0.0,96,0.00,,---,0.00,VWS V14.00,2013-08-05 05:58:00,
2013-08-05 02:04:00,58.8,57.7,30.06,South,172,0.0,0.0,96,0.00,,---,0.00,VWS V14.00,2013-08-05 06:04:00,
2013-08-05 02:09:00,58.7,57.6,30.06,South,172,0.0,1.0,96,0.00,,---,0.00,VWS V14.00,2013-08-05 06:09:00,
2013-08-05 02:14:00,58.7,57.6,30.06,South,172,0.0,1.0,96,0.00,,---,0.00,VWS V14.00,2013-08-05 06:14:00,
2013-08-05 02:19:00,58.7,57.6,30.06,South,172,0.0,1.0,96,0.00,,---,0.00,VWS V14.00,2013-08-05 06:19:00,
2013-08-05 02:24:00,58.8,57.7,30.06,South,172,0.0,1.0,96,0.00,,---,0.00,VWS V14.00,2013-08-05 06:24:00,
2013-08-05 02:29:00,58.7,57.6,30.06,South,172,0.0,1.0,96,0.00,,---,0.00,VWS V14.00,2013-08-05 06:29:00,
2013-08-05 02:34:00,58.7,57.6,30.06,South,172,0.0,1.0,96,0.00,,---,0.00,VWS V14.00,2013-08-05 06:34:00,
2013-08-05 02:39:00,58.7,57.6,30.06,South,172,0.0,1.0,96,0.00,,---,0.00,VWS V14.00,2013-08-05 06:39:00,
2013-08-05 02:44:00,58.7,57.6,30.06,South,172,0.0,1.0,96,0.00,,---,0.00,VWS V14.00,2013-08-05 06:44:00,
2013-08-05 02:49:00,58.7,57.6,30.06,South,172,0.0,1.0,96,0.00,,---,0.00,VWS V14.00,2013-08-05 06:49:00,
2013-08-05 02:55:00,58.7,57.6,30.06,South,172,0.0,1.0,96,0.00,,---,0.00,VWS V14.00,2013-08-05 06:55:00,
2013-08-05 03:00:00,58.7,57.6,30.06,South,172,0.0,1.0,96,0.00,,---,0.00,VWS V14.00,2013-08-05 07:00:00,
2013-08-05 03:05:00,58.6,57.5,30.06,South,172,0.0,0.0,96,0.00,,---,0.00,VWS V14.00,2013-08-05 07:05:00,
2013-08-05 03:10:00,58.6,57.5,30.06,South,172,0.0,0.0,96,0.00,,---,0.00,VWS V14.00,2013-08-05 07:10:00,
2013-08-05 03:15:00,58.5,57.4,30.06,South,172,0.0,0.0,96,0.00,,---,0.00,VWS V14.00,2013-08-05 07:15:00,
2013-08-05 03:20:00,58.5,57.4,30.06,South,172,0.0,0.0,96,0.00,,---,0.00,VWS V14.00,2013-08-05 07:20:00,
2013-08-05 03:25:00,58.5,57.4,30.06,South,172,0.0,0.0,96,0.00,,---,0.00,VWS V14.00,2013-08-05 07:25:00,
2013-08-05 03:30:00,58.5,57.4,30.05,South,172,0.0,0.0,96,0.00,,---,0.00,VWS V14.00,2013-08-05 07:30:00,
2013-08-05 03:35:00,58.5,57.4,30.05,South,172,0.0,0.0,96,0.00,,---,0.00,VWS V14.00,2013-08-05 07:35:00,
2013-08-05 03:40:00,58.4,57.3,30.05,South,172,0.0,0.0,96,0.00,,---,0.00,VWS V14.00,2013-08-05 07:40:00,
2013-08-05 03:45:00,58.2,57.1,30.05,South,172,0.0,0.0,96,0.00,,---,0.00,VWS V14.00,2013-08-05 07:45:00,
2013-08-05 03:51:00,58.1,57.0,30.05,South,172,0.0,1.0,96,0.00,,---,0.00,VWS V14.00,2013-08-05 07:51:00,
2013-08-05 03:56:00,58.0,56.9,30.05,South,172,1.0,1.0,96,0.00,,---,0.00,VWS V14.00,2013-08-05 07:56:00,
2013-08-05 04:02:00,58.0,56.9,30.05,South,172,0.0,0.0,96,0.00,,---,0.00,VWS V14.00,2013-08-05 08:02:00,
2013-08-05 04:07:00,58.0,56.9,30.06,South,172,0.0,0.0,96,0.00,,---,0.00,VWS V14.00,2013-08-05 08:07:00,
2013-08-05 04:12:00,58.1,57.3,30.06,South,172,0.0,0.0,97,0.00,,---,0.00,VWS V14.00,2013-08-05 08:12:00,
2013-08-05 04:17:00,58.2,57.4,30.05,South,172,0.0,1.0,97,0.00,,---,0.00,VWS V14.00,2013-08-05 08:17:00,
2013-08-05 04:22:00,58.3,57.5,30.06,South,172,0.0,1.0,97,0.00,,---,0.00,VWS V14.00,2013-08-05 08:22:00,
2013-08-05 04:27:00,58.3,57.2,30.06,South,172,0.0,1.0,96,0.00,,---,0.00,VWS V14.00,2013-08-05 08:27:00,
2013-08-05 04:32:00,58.2,57.1,30.06,South,172,0.0,0.0,96,0.00,,---,0.00,VWS V14.00,2013-08-05 08:32:00,
2013-08-05 04:37:00,58.1,57.0,30.05,South,172,0.0,0.0,96,0.00,,---,0.00,VWS V14.00,2013-08-05 08:37:00,
2013-08-05 04:42:00,58.0,56.9,30.05,South,172,0.0,0.0,96,0.00,,---,0.00,VWS V14.00,2013-08-05 08:42:00,
2013-08-05 04:47:00,57.8,56.7,30.05,South,172,0.0,0.0,96,0.00,,---,0.00,VWS V14.00,2013-08-05 08:47:00,
2013-08-05 04:54:00,57.6,56.5,30.05,South,172,0.0,0.0,96,0.00,,---,0.00,VWS V14.00,2013-08-05 08:54:00,
2013-08-05 04:59:00,57.5,56.4,30.05,South,172,0.0,0.0,96,0.00,,---,0.00,VWS V14.00,2013-08-05 08:59:00,
2013-08-05 05:04:00,57.2,56.1,30.05,South,172,0.0,0.0,96,0.00,,---,0.00,VWS V14.00,2013-08-05 09:04:00,
2013-08-05 05:10:00,57.0,55.9,30.06,South,172,0.0,0.0,96,0.00,,---,0.00,VWS V14.00,2013-08-05 09:10:00,
2013-08-05 05:16:00,56.9,55.8,30.05,South,172,0.0,0.0,96,0.00,,---,0.00,VWS V14.00,2013-08-05 09:16:00,
2013-08-05 05:22:00,56.8,55.7,30.05,South,172,0.0,0.0,96,0.00,,---,0.00,VWS V14.00,2013-08-05 09:22:00,
2013-08-05 05:28:00,56.9,55.8,30.05,South,172,0.0,0.0,96,0.00,,---,0.00,VWS V14.00,2013-08-05 09:28:00,
2013-08-05 05:34:00,56.8,56.0,30.06,South,172,0.0,0.0,97,0.00,,---,0.00,VWS V14.00,2013-08-05 09:34:00,
2013-08-05 05:39:00,56.9,56.1,30.06,South,172,0.0,0.0,97,0.00,,---,0.00,VWS V14.00,2013-08-05 09:39:00,
2013-08-05 05:44:00,56.8,56.0,30.06,South,172,0.0,0.0,97,0.00,,---,0.00,VWS V14.00,2013-08-05 09:44:00,
2013-08-05 05:49:00,56.8,56.0,30.06,South,172,0.0,0.0,97,0.00,,---,0.00,VWS V14.00,2013-08-05 09:49:00,
2013-08-05 05:55:00,56.8,56.0,30.06,South,172,0.0,0.0,97,0.00,,---,0.00,VWS V14.00,2013-08-05 09:55:00,
2013-08-05 06:00:00,56.8,56.0,30.06,South,172,0.0,0.0,97,0.00,,---,0.00,VWS V14.00,2013-08-05 10:00:00,
2013-08-05 06:06:00,56.8,56.0,30.06,South,172,0.0,0.0,97,0.00,,---,0.00,VWS V14.00,2013-08-05 10:06:00,
2013-08-05 06:13:00,56.8,56.0,30.07,South,172,0.0,0.0,97,0.00,,---,0.00,VWS V14.00,2013-08-05 10:13:00,
2013-08-05 06:18:00,56.8,56.0,30.07,South,172,0.0,0.0,97,0.00,,---,0.00,VWS V14.00,2013-08-05 10:18:00,
2013-08-05 06:25:00,56.9,56.1,30.07,South,172,0.0,0.0,97,0.00,,---,0.00,VWS V14.00,2013-08-05 10:25:00,
2013-08-05 06:30:00,56.9,56.1,30.07,South,172,0.0,0.0,97,0.00,,---,0.00,VWS V14.00,2013-08-05 10:30:00,
2013-08-05 06:35:00,56.9,56.1,30.07,South,172,0.0,0.0,97,0.00,,---,0.00,VWS V14.00,2013-08-05 10:35:00,
2013-08-05 06:40:00,56.8,56.0,30.07,South,172,0.0,0.0,97,0.00,,---,0.00,VWS V14.00,2013-08-05 10:40:00,
2013-08-05 06:45:00,56.8,56.0,30.07,South,172,0.0,0.0,97,0.00,,---,0.00,VWS V14.00,2013-08-05 10:45:00,
2013-08-05 06:51:00,56.8,56.0,30.07,South,172,0.0,0.0,97,0.00,,---,0.00,VWS V14.00,2013-08-05 10:51:00,
2013-08-05 06:56:00,56.8,56.0,30.07,South,172,0.0,0.0,97,0.00,,---,0.00,VWS V14.00,2013-08-05 10:56:00,
2013-08-05 07:02:00,56.8,56.0,30.07,South,172,0.0,0.0,97,0.00,,---,0.00,VWS V14.00,2013-08-05 11:02:00,
2013-08-05 07:07:00,56.9,56.1,30.07,South,172,0.0,0.0,97,0.00,,---,0.00,VWS V14.00,2013-08-05 11:07:00,
2013-08-05 07:12:00,57.0,56.2,30.07,South,172,0.0,0.0,97,0.00,,---,0.00,VWS V14.00,2013-08-05 11:12:00,
2013-08-05 07:18:00,57.1,56.3,30.07,South,172,0.0,0.0,97,0.00,,---,0.00,VWS V14.00,2013-08-05 11:18:00,
2013-08-05 07:24:00,57.2,56.4,30.07,South,172,0.0,1.0,97,0.00,,---,0.00,VWS V14.00,2013-08-05 11:24:00,
2013-08-05 07:29:00,57.3,56.5,30.08,South,172,0.0,1.0,97,0.00,,---,0.00,VWS V14.00,2013-08-05 11:29:00,
2013-08-05 07:35:00,57.6,56.8,30.07,South,172,0.0,0.0,97,0.00,,---,0.00,VWS V14.00,2013-08-05 11:35:00,
2013-08-05 07:40:00,58.0,57.4,30.08,South,172,0.0,0.0,98,0.00,,---,0.00,VWS V14.00,2013-08-05 11:40:00,
2013-08-05 07:45:00,58.5,57.9,30.08,South,172,0.0,1.0,98,0.00,,---,0.00,VWS V14.00,2013-08-05 11:45:00,
2013-08-05 07:52:00,59.5,58.7,30.08,South,172,0.0,2.0,97,0.00,,---,0.00,VWS V14.00,2013-08-05 11:52:00,
2013-08-05 07:57:00,60.0,58.6,30.08,South,172,1.0,2.0,95,0.00,,---,0.00,VWS V14.00,2013-08-05 11:57:00,
2013-08-05 08:02:00,60.3,58.6,30.08,South,172,0.0,0.0,94,0.00,,---,0.00,VWS V14.00,2013-08-05 12:02:00,
2013-08-05 08:08:00,60.8,59.1,30.08,South,172,0.0,2.0,94,0.00,,---,0.00,VWS V14.00,2013-08-05 12:08:00,
2013-08-05 08:14:00,61.2,58.9,30.08,South,171,0.0,4.0,92,0.00,,---,0.00,VWS V14.00,2013-08-05 12:14:00,
2013-08-05 08:19:00,61.6,59.3,30.08,South,171,0.0,4.0,92,0.00,,---,0.00,VWS V14.00,2013-08-05 12:19:00,
2013-08-05 08:24:00,61.9,58.3,30.08,South,171,0.0,4.0,88,0.00,,---,0.00,VWS V14.00,2013-08-05 12:24:00,
2013-08-05 08:30:00,62.5,59.2,30.08,South,171,2.0,4.0,89,0.00,,---,0.00,VWS V14.00,2013-08-05 12:30:00,
2013-08-05 08:35:00,63.0,59.1,30.08,SSE,162,0.0,4.0,87,0.00,,---,0.00,VWS V14.00,2013-08-05 12:35:00,
2013-08-05 08:40:00,63.4,59.2,30.08,SSE,163,0.0,4.0,86,0.00,,---,0.00,VWS V14.00,2013-08-05 12:40:00,
2013-08-05 08:46:00,64.0,60.1,30.08,SSE,162,1.0,4.0,87,0.00,,---,0.00,VWS V14.00,2013-08-05 12:46:00,
2013-08-05 08:51:00,64.2,59.9,30.09,SSE,163,0.0,4.0,86,0.00,,---,0.00,VWS V14.00,2013-08-05 12:51:00,
2013-08-05 08:57:00,64.3,59.7,30.08,SSE,162,0.0,4.0,85,0.00,,---,0.00,VWS V14.00,2013-08-05 12:57:00,
2013-08-05 09:02:00,64.7,59.8,30.08,SSE,163,0.0,0.0,84,0.00,,---,0.00,VWS V14.00,2013-08-05 13:02:00,
2013-08-05 09:08:00,65.0,59.7,30.08,SSE,163,0.0,1.0,83,0.00,,---,0.00,VWS V14.00,2013-08-05 13:08:00,
2013-08-05 09:13:00,65.4,59.8,30.08,SSE,162,0.0,1.0,82,0.00,,---,0.00,VWS V14.00,2013-08-05 13:13:00,
2013-08-05 09:18:00,66.2,60.2,30.08,SSE,162,0.0,1.0,81,0.00,,---,0.00,VWS V14.00,2013-08-05 13:18:00,
2013-08-05 09:24:00,66.7,60.7,30.08,SSE,163,0.0,1.0,81,0.00,,---,0.00,VWS V14.00,2013-08-05 13:24:00,
2013-08-05 09:30:00,66.9,60.9,30.08,SSE,162,0.0,2.0,81,0.00,,---,0.00,VWS V14.00,2013-08-05 13:30:00,
2013-08-05 09:35:00,67.2,61.2,30.08,SSE,163,0.0,1.0,81,0.00,,---,0.00,VWS V14.00,2013-08-05 13:35:00,
2013-08-05 09:41:00,67.6,60.1,30.08,SSE,162,0.0,1.0,77,0.00,,---,0.00,VWS V14.00,2013-08-05 13:41:00,
2013-08-05 09:47:00,68.2,60.0,30.08,SSE,162,0.0,1.0,75,0.00,,---,0.00,VWS V14.00,2013-08-05 13:47:00,
2013-08-05 09:53:00,68.4,59.4,30.08,SSE,162,0.0,1.0,73,0.00,,---,0.00,VWS V14.00,2013-08-05 13:53:00,
2013-08-05 09:58:00,68.4,59.4,30.08,SSE,163,0.0,1.0,73,0.00,,---,0.00,VWS V14.00,2013-08-05 13:58:00,
2013-08-05 10:03:00,68.6,59.2,30.08,SSE,163,0.0,2.0,72,0.00,,---,0.00,VWS V14.00,2013-08-05 14:03:00,
2013-08-05 10:08:00,68.6,60.0,30.09,SSE,163,0.0,2.0,74,0.00,,---,0.00,VWS V14.00,2013-08-05 14:08:00,
2013-08-05 10:13:00,68.6,59.2,30.09,SSE,149,0.0,4.0,72,0.00,,---,0.00,VWS V14.00,2013-08-05 14:13:00,
2013-08-05 10:19:00,68.7,60.5,30.09,SSE,149,0.0,4.0,75,0.00,,---,0.00,VWS V14.00,2013-08-05 14:19:00,
2013-08-05 10:24:00,68.8,59.8,30.09,SSE,149,0.0,4.0,73,0.00,,---,0.00,VWS V14.00,2013-08-05 14:24:00,
2013-08-05 10:30:00,68.6,58.8,30.09,SSE,149,0.0,4.0,71,0.00,,---,0.00,VWS V14.00,2013-08-05 14:30:00,
2013-08-05 10:35:00,68.5,59.5,30.09,SE,144,0.0,5.0,73,0.00,,---,0.00,VWS V14.00,2013-08-05 14:35:00,
2013-08-05 10:40:00,68.7,60.5,30.09,SE,144,0.0,5.0,75,0.00,,---,0.00,VWS V14.00,2013-08-05 14:40:00,
2013-08-05 10:47:00,68.9,60.3,30.09,SE,144,4.0,5.0,74,0.00,,---,0.00,VWS V14.00,2013-08-05 14:47:00,
2013-08-05 10:52:00,69.0,60.0,30.09,SE,140,0.0,5.0,73,0.00,,---,0.00,VWS V14.00,2013-08-05 14:52:00,
2013-08-05 10:57:00,69.0,59.6,30.09,SE,124,0.0,5.0,72,0.00,,---,0.00,VWS V14.00,2013-08-05 14:57:00,
2013-08-05 11:03:00,69.2,60.2,30.09,SE,125,0.0,1.0,73,0.00,,---,0.00,VWS V14.00,2013-08-05 15:03:00,
2013-08-05 11:08:00,69.5,60.9,30.09,SE,125,0.0,1.0,74,0.00,,---,0.00,VWS V14.00,2013-08-05 15:08:00,
2013-08-05 11:13:00,69.9,60.5,30.09,SSE,153,0.0,5.0,72,0.00,,---,0.00,VWS V14.00,2013-08-05 15:13:00,
2013-08-05 11:20:00,70.3,60.5,30.09,SE,134,1.0,6.0,71,0.00,,---,0.00,VWS V14.00,2013-08-05 15:20:00,
2013-08-05 11:25:00,70.0,58.1,30.08,SSE,163,2.0,9.0,66,0.00,,---,0.00,VWS V14.00,2013-08-05 15:25:00,
2013-08-05 11:29:00,69.7,58.7,30.08,NE,37,2.0,9.0,68,0.00,,---,0.00,VWS V14.00,2013-08-05 15:29:00,
2013-08-05 11:36:00,70.3,62.0,30.08,NE,35,0.0,1.0,75,0.00,,---,0.00,VWS V14.00,2013-08-05 15:36:00,
2013-08-05 11:41:00,70.6,59.5,30.08,West,278,0.0,3.0,68,0.00,,---,0.00,VWS V14.00,2013-08-05 15:41:00,
2013-08-05 11:46:00,70.8,60.9,30.07,WSW,250,4.0,7.0,71,0.00,,---,0.00,VWS V14.00,2013-08-05 15:46:00,
2013-08-05 11:52:00,70.8,59.7,30.07,WSW,244,1.0,7.0,68,0.00,,---,0.00,VWS V14.00,2013-08-05 15:52:00,
2013-08-05 11:58:00,70.7,61.2,30.07,South,174,4.0,7.0,72,0.00,,---,0.00,VWS V14.00,2013-08-05 15:58:00,
2013-08-05 12:04:00,71.5,60.4,30.07,SSE,159,4.0,5.0,68,0.00,,---,0.00,VWS V14.00,2013-08-05 16:04:00,
2013-08-05 12:09:00,71.9,59.5,30.07,South,172,1.0,6.0,65,0.00,,---,0.00,VWS V14.00,2013-08-05 16:09:00,
2013-08-05 12:14:00,72.4,60.0,30.06,East,90,2.0,8.0,65,0.00,,---,0.00,VWS V14.00,2013-08-05 16:14:00,
2013-08-05 12:21:00,72.4,60.8,30.06,ESE,104,4.0,8.0,67,0.00,,---,0.00,VWS V14.00,2013-08-05 16:21:00,
2013-08-05 12:27:00,71.9,61.2,30.06,NE,49,0.0,8.0,69,0.00,,---,0.00,VWS V14.00,2013-08-05 16:27:00,
2013-08-05 12:32:00,71.9,60.8,30.06,West,270,0.0,3.0,68,0.00,,---,0.00,VWS V14.00,2013-08-05 16:32:00,
2013-08-05 12:37:00,72.3,62.0,30.06,NE,41,0.0,6.0,70,0.00,,---,0.00,VWS V14.00,2013-08-05 16:37:00,
2013-08-05 12:42:00,72.3,61.2,30.05,SE,130,1.0,6.0,68,0.00,,---,0.00,VWS V14.00,2013-08-05 16:42:00,
2013-08-05 12:48:00,72.5,61.3,30.05,SE,137,2.0,6.0,68,0.00,,---,0.00,VWS V14.00,2013-08-05 16:48:00,
2013-08-05 12:53:00,73.0,62.7,30.05,SSE,156,6.0,6.0,70,0.00,,---,0.00,VWS V14.00,2013-08-05 16:53:00,
2013-08-05 12:59:00,73.4,61.8,30.05,SW,233,0.0,6.0,67,0.00,,---,0.00,VWS V14.00,2013-08-05 16:59:00,
2013-08-05 13:04:00,73.3,64.5,30.04,SW,222,1.0,3.0,74,0.00,,---,0.00,VWS V14.00,2013-08-05 17:04:00,
2013-08-05 13:10:00,73.4,62.2,30.04,SW,232,2.0,3.0,68,0.00,,---,0.00,VWS V14.00,2013-08-05 17:10:00,
2013-08-05 13:15:00,74.2,64.6,30.04,South,170,5.0,5.0,72,0.00,,---,0.00,VWS V14.00,2013-08-05 17:15:00,
2013-08-05 13:21:00,73.9,62.7,30.04,SE,146,4.0,5.0,68,0.00,,---,0.00,VWS V14.00,2013-08-05 17:21:00,
2013-08-05 13:27:00,72.9,61.3,30.04,SSE,147,0.0,5.0,67,0.00,,---,0.00,VWS V14.00,2013-08-05 17:27:00,
2013-08-05 13:32:00,72.6,61.4,30.04,SSE,147,0.0,2.0,68,0.00,,---,0.00,VWS V14.00,2013-08-05 17:32:00,
2013-08-05 13:37:00,72.4,60.4,30.04,South,178,0.0,4.0,66,0.00,,---,0.00,VWS V14.00,2013-08-05 17:37:00,
2013-08-05 13:41:00,72.2,61.5,30.04,East,98,1.0,5.0,69,0.00,,---,0.00,VWS V14.00,2013-08-05 17:41:00,
2013-08-05 13:48:00,72.3,61.2,30.04,NE,47,3.0,5.0,68,0.00,,---,0.00,VWS V14.00,2013-08-05 17:48:00,
2013-08-05 13:53:00,72.6,61.4,30.03,East,89,0.0,5.0,68,0.00,,---,0.00,VWS V14.00,2013-08-05 17:53:00,
2013-08-05 13:58:00,73.2,62.4,30.03,ESE,122,1.0,5.0,69,0.00,,---,0.00,VWS V14.00,2013-08-05 17:58:00,
2013-08-05 14:03:00,74.3,63.9,30.03,SE,146,5.0,6.0,70,0.00,,---,0.00,VWS V14.00,2013-08-05 18:03:00,
2013-08-05 14:09:00,74.7,63.0,30.02,South,183,2.0,6.0,67,0.00,,---,0.00,VWS V14.00,2013-08-05 18:09:00,
2013-08-05 14:14:00,75.1,64.2,30.02,SW,227,2.0,6.0,69,0.00,,---,0.00,VWS V14.00,2013-08-05 18:14:00,
2013-08-05 14:20:00,75.5,63.4,30.02,ESE,122,5.0,7.0,66,0.00,,---,0.00,VWS V14.00,2013-08-05 18:20:00,
2013-08-05 14:27:00,75.5,63.8,30.01,SSE,151,4.0,7.0,67,0.00,,---,0.00,VWS V14.00,2013-08-05 18:27:00,
2013-08-05 14:32:00,75.5,62.0,30.01,NE,36,4.0,5.0,63,0.00,,---,0.00,VWS V14.00,2013-08-05 18:32:00,
2013-08-05 14:38:00,75.4,62.8,30.01,ESE,107,1.0,5.0,65,0.00,,---,0.00,VWS V14.00,2013-08-05 18:38:00,
2013-08-05 14:43:00,75.2,62.2,30.01,ESE,107,0.0,5.0,64,0.00,,---,0.00,VWS V14.00,2013-08-05 18:43:00,
2013-08-05 14:48:00,75.3,64.4,30.01,SSE,164,4.0,5.0,69,0.00,,---,0.00,VWS V14.00,2013-08-05 18:48:00,
2013-08-05 14:53:00,75.7,64.4,30.01,SE,128,2.0,8.0,68,0.00,,---,0.00,VWS V14.00,2013-08-05 18:53:00,
2013-08-05 14:58:00,75.1,62.5,30.00,South,171,2.0,8.0,65,0.00,,---,0.00,VWS V14.00,2013-08-05 18:58:00,
2013-08-05 15:03:00,75.2,63.1,30.00,SE,126,1.0,5.0,66,0.00,,---,0.00,VWS V14.00,2013-08-05 19:03:00,
2013-08-05 15:08:00,76.0,65.9,30.00,SSW,193,2.0,5.0,71,0.00,,---,0.00,VWS V14.00,2013-08-05 19:08:00,
2013-08-05 15:13:00,76.7,65.3,30.00,SSE,147,0.0,5.0,68,0.00,,---,0.00,VWS V14.00,2013-08-05 19:13:00,
2013-08-05 15:18:00,76.6,62.6,30.00,SE,145,0.0,5.0,62,0.00,,---,0.00,VWS V14.00,2013-08-05 19:18:00,
2013-08-05 15:24:00,76.1,64.8,30.00,ESE,122,1.0,5.0,68,0.00,,---,0.00,VWS V14.00,2013-08-05 19:24:00,
2013-08-05 15:30:00,75.8,62.3,29.99,South,172,0.0,5.0,63,0.00,,---,0.00,VWS V14.00,2013-08-05 19:30:00,
2013-08-05 15:35:00,75.5,62.9,30.00,SSE,148,0.0,5.0,65,0.00,,---,0.00,VWS V14.00,2013-08-05 19:35:00,
2013-08-05 15:41:00,75.1,62.5,30.00,SSE,148,1.0,5.0,65,0.00,,---,0.00,VWS V14.00,2013-08-05 19:41:00,
2013-08-05 15:47:00,74.9,63.2,30.00,SE,140,0.0,5.0,67,0.00,,---,0.00,VWS V14.00,2013-08-05 19:47:00,
2013-08-05 15:52:00,75.3,64.0,30.00,SE,140,0.0,5.0,68,0.00,,---,0.00,VWS V14.00,2013-08-05 19:52:00,
2013-08-05 15:57:00,75.1,63.0,30.00,ENE,72,1.0,5.0,66,0.00,,---,0.00,VWS V14.00,2013-08-05 19:57:00,
2013-08-05 16:02:00,74.6,63.3,30.00,East,99,0.0,2.0,68,0.00,,---,0.00,VWS V14.00,2013-08-05 20:02:00,
2013-08-05 16:07:00,74.4,64.8,30.00,East,101,0.0,2.0,72,0.00,,---,0.00,VWS V14.00,2013-08-05 20:07:00,
2013-08-05 16:14:00,74.9,64.1,29.99,SE,128,1.0,4.0,69,0.00,,---,0.00,VWS V14.00,2013-08-05 20:14:00,
2013-08-05 16:19:00,75.5,63.8,29.99,SSE,149,1.0,4.0,67,0.00,,---,0.00,VWS V14.00,2013-08-05 20:19:00,
2013-08-05 16:25:00,75.7,63.1,29.99,SSE,167,0.0,5.0,65,0.00,,---,0.00,VWS V14.00,2013-08-05 20:25:00,
2013-08-05 16:30:00,75.9,62.9,29.98,SSW,206,0.0,5.0,64,0.00,,---,0.00,VWS V14.00,2013-08-05 20:30:00,
2013-08-05 16:35:00,76.4,65.1,29.98,SW,228,0.0,4.0,68,0.00,,---,0.00,VWS V14.00,2013-08-05 20:35:00,
2013-08-05 16:40:00,76.1,63.9,29.98,South,179,2.0,4.0,66,0.00,,---,0.00,VWS V14.00,2013-08-05 20:40:00,
2013-08-05 16:45:00,75.8,63.6,29.98,SSE,167,0.0,5.0,66,0.00,,---,0.00,VWS V14.00,2013-08-05 20:45:00,
2013-08-05 16:51:00,75.3,63.6,29.98,SSE,154,0.0,5.0,67,0.00,,---,0.00,VWS V14.00,2013-08-05 20:51:00,
2013-08-05 16:56:00,75.3,63.6,29.98,SE,124,0.0,6.0,67,0.00,,---,0.00,VWS V14.00,2013-08-05 20:56:00,
2013-08-05 17:02:00,75.5,65.4,29.98,SE,124,2.0,2.0,71,0.00,,---,0.00,VWS V14.00,2013-08-05 21:02:00,
2013-08-05 17:07:00,75.9,64.2,29.98,South,172,0.0,5.0,67,0.00,,---,0.00,VWS V14.00,2013-08-05 21:07:00,
2013-08-05 17:13:00,76.6,66.1,29.98,SSE,151,5.0,5.0,70,0.00,,---,0.00,VWS V14.00,2013-08-05 21:13:00,
2013-08-05 17:18:00,76.5,63.9,29.98,SSE,165,1.0,5.0,65,0.00,,---,0.00,VWS V14.00,2013-08-05 21:18:00,
2013-08-05 17:24:00,76.5,64.7,29.98,South,183,2.0,5.0,67,0.00,,---,0.00,VWS V14.00,2013-08-05 21:24:00,
2013-08-05 17:29:00,76.3,64.6,29.98,SSE,157,2.0,5.0,67,0.00,,---,0.00,VWS V14.00,2013-08-05 21:29:00,
2013-08-05 17:35:00,76.1,64.8,29.98,SSE,151,1.0,4.0,68,0.00,,---,0.00,VWS V14.00,2013-08-05 21:35:00,
2013-08-05 17:41:00,75.7,64.8,29.98,SSE,164,5.0,5.0,69,0.00,,---,0.00,VWS V14.00,2013-08-05 21:41:00,
2013-08-05 17:46:00,75.6,64.7,29.99,SE,145,0.0,5.0,69,0.00,,---,0.00,VWS V14.00,2013-08-05 21:46:00,
2013-08-05 17:52:00,75.1,64.2,29.99,ESE,120,0.0,5.0,69,0.00,,---,0.00,VWS V14.00,2013-08-05 21:52:00,
2013-08-05 17:57:00,75.0,64.6,29.98,SE,134,1.0,5.0,70,0.00,,---,0.00,VWS V14.00,2013-08-05 21:57:00,
2013-08-05 18:02:00,75.0,65.0,29.98,SE,145,0.0,4.0,71,0.00,,---,0.00,VWS V14.00,2013-08-05 22:02:00,
2013-08-05 18:08:00,74.8,64.4,29.98,SE,134,1.0,4.0,70,0.00,,---,0.00,VWS V14.00,2013-08-05 22:08:00,
2013-08-05 18:14:00,74.2,64.2,29.98,SE,128,1.0,4.0,71,0.00,,---,0.00,VWS V14.00,2013-08-05 22:14:00,
2013-08-05 18:20:00,74.1,65.7,29.98,SE,128,0.0,4.0,75,0.00,,---,0.00,VWS V14.00,2013-08-05 22:20:00,
2013-08-05 18:25:00,74.0,64.4,29.98,NNE,24,0.0,4.0,72,0.00,,---,0.00,VWS V14.00,2013-08-05 22:25:00,
2013-08-05 18:30:00,74.5,65.7,29.98,SSW,213,0.0,4.0,74,0.00,,---,0.00,VWS V14.00,2013-08-05 22:30:00,
2013-08-05 18:36:00,74.3,64.7,29.98,South,178,2.0,4.0,72,0.00,,---,0.00,VWS V14.00,2013-08-05 22:36:00,
2013-08-05 18:41:00,73.9,64.7,29.98,WSW,246,2.0,5.0,73,0.00,,---,0.00,VWS V14.00,2013-08-05 22:41:00,
2013-08-05 18:47:00,73.7,65.7,29.98,SSE,162,0.0,5.0,76,0.00,,---,0.00,VWS V14.00,2013-08-05 22:47:00,
2013-08-05 18:52:00,73.8,65.0,29.98,SSE,167,2.0,6.0,74,0.00,,---,0.00,VWS V14.00,2013-08-05 22:52:00,
2013-08-05 18:57:00,73.6,64.4,29.98,SSE,165,0.0,6.0,73,0.00,,---,0.00,VWS V14.00,2013-08-05 22:57:00,
2013-08-05 19:03:00,73.4,64.6,29.99,SSE,153,2.0,4.0,74,0.00,,---,0.00,VWS V14.00,2013-08-05 23:03:00,
2013-08-05 19:09:00,73.0,64.6,29.99,SSE,153,0.0,4.0,75,0.00,,---,0.00,VWS V14.00,2013-08-05 23:09:00,
2013-08-05 19:14:00,72.8,65.2,29.99,SSE,149,0.0,4.0,77,0.00,,---,0.00,VWS V14.00,2013-08-05 23:14:00,
2013-08-05 19:20:00,72.5,64.9,29.99,SSE,149,1.0,4.0,77,0.00,,---,0.00,VWS V14.00,2013-08-05 23:20:00,
2013-08-05 19:25:00,72.4,64.8,29.99,SSE,149,0.0,4.0,77,0.00,,---,0.00,VWS V14.00,2013-08-05 23:25:00,
2013-08-05 19:31:00,72.2,65.0,29.99,ENE,68,0.0,0.0,78,0.00,,---,0.00,VWS V14.00,2013-08-05 23:31:00,
2013-08-05 19:36:00,72.0,65.1,29.99,ENE,68,0.0,1.0,79,0.00,,---,0.00,VWS V14.00,2013-08-05 23:36:00,
2013-08-05 19:42:00,71.8,64.9,29.99,East,95,2.0,4.0,79,0.00,,---,0.00,VWS V14.00,2013-08-05 23:42:00,
2013-08-05 19:47:00,71.5,65.0,29.99,East,95,0.0,4.0,80,0.00,,---,0.00,VWS V14.00,2013-08-05 23:47:00,
2013-08-05 19:52:00,71.3,64.8,29.99,East,95,0.0,4.0,80,0.00,,---,0.00,VWS V14.00,2013-08-05 23:52:00,
2013-08-05 19:57:00,71.1,64.6,29.99,East,95,0.0,4.0,80,0.00,,---,0.00,VWS V14.00,2013-08-05 23:57:00,
2013-08-05 20:02:00,70.9,64.8,29.99,East,95,0.0,0.0,81,0.00,,---,0.00,VWS V14.00,2013-08-06 00:02:00,
2013-08-05 20:08:00,70.6,64.5,29.99,East,95,0.0,0.0,81,0.00,,---,0.00,VWS V14.00,2013-08-06 00:08:00,
2013-08-05 20:13:00,70.3,64.6,29.99,East,95,0.0,1.0,82,0.00,,---,0.00,VWS V14.00,2013-08-06 00:13:00,
2013-08-05 20:18:00,69.9,64.5,29.99,East,95,0.0,1.0,83,0.00,,---,0.00,VWS V14.00,2013-08-06 00:18:00,
2013-08-05 20:24:00,69.5,64.5,29.99,East,95,0.0,2.0,84,0.00,,---,0.00,VWS V14.00,2013-08-06 00:24:00,
2013-08-05 20:29:00,69.2,64.5,29.99,East,95,0.0,2.0,85,0.00,,---,0.00,VWS V14.00,2013-08-06 00:29:00,
2013-08-05 20:34:00,68.9,64.2,30.00,East,95,0.0,1.0,85,0.00,,---,0.00,VWS V14.00,2013-08-06 00:34:00,
2013-08-05 20:39:00,68.7,64.0,30.00,East,95,0.0,1.0,85,0.00,,---,0.00,VWS V14.00,2013-08-06 00:39:00,
2013-08-05 20:44:00,68.6,64.2,30.00,East,95,0.0,1.0,86,0.00,,---,0.00,VWS V14.00,2013-08-06 00:44:00,
2013-08-05 20:50:00,68.5,64.2,30.00,East,95,0.0,1.0,86,0.00,,---,0.00,VWS V14.00,2013-08-06 00:50:00,
2013-08-05 20:55:00,68.3,64.3,30.00,East,95,0.0,2.0,87,0.00,,---,0.00,VWS V14.00,2013-08-06 00:55:00,
2013-08-05 21:01:00,68.2,64.2,30.00,East,95,0.0,2.0,87,0.00,,---,0.00,VWS V14.00,2013-08-06 01:01:00,
2013-08-05 21:07:00,68.1,64.4,30.00,East,95,0.0,0.0,88,0.00,,---,0.00,VWS V14.00,2013-08-06 01:07:00,
2013-08-05 21:12:00,68.0,64.0,30.00,East,95,0.0,0.0,87,0.00,,---,0.00,VWS V14.00,2013-08-06 01:12:00,
2013-08-05 21:18:00,68.0,64.6,30.00,East,95,0.0,0.0,89,0.00,,---,0.00,VWS V14.00,2013-08-06 01:18:00,
2013-08-05 21:25:00,68.0,64.3,30.00,East,95,0.0,0.0,88,0.00,,---,0.00,VWS V14.00,2013-08-06 01:25:00,
2013-08-05 21:30:00,67.9,64.2,30.00,East,95,0.0,1.0,88,0.00,,---,0.00,VWS V14.00,2013-08-06 01:30:00,
2013-08-05 21:36:00,67.8,63.8,30.01,East,95,0.0,0.0,87,0.00,,---,0.00,VWS V14.00,2013-08-06 01:36:00,
2013-08-05 21:42:00,67.8,64.1,30.00,East,95,0.0,0.0,88,0.00,,---,0.00,VWS V14.00,2013-08-06 01:42:00,
2013-08-05 21:47:00,67.8,64.1,30.00,East,95,0.0,0.0,88,0.00,,---,0.00,VWS V14.00,2013-08-06 01:47:00,
2013-08-05 21:53:00,67.8,64.1,30.00,East,95,0.0,0.0,88,0.00,,---,0.00,VWS V14.00,2013-08-06 01:53:00,
2013-08-05 21:59:00,67.8,64.1,30.00,East,95,0.0,0.0,88,0.00,,---,0.00,VWS V14.00,2013-08-06 01:59:00,
2013-08-05 22:04:00,67.7,64.0,30.00,East,95,0.0,0.0,88,0.00,,---,0.00,VWS V14.00,2013-08-06 02:04:00,
2013-08-05 22:10:00,67.6,63.9,30.00,East,95,0.0,0.0,88,0.00,,---,0.00,VWS V14.00,2013-08-06 02:10:00,
2013-08-05 22:15:00,67.5,63.8,30.00,ENE,68,0.0,1.0,88,0.00,,---,0.00,VWS V14.00,2013-08-06 02:15:00,
2013-08-05 22:20:00,67.4,63.7,29.99,ESE,105,0.0,4.0,88,0.00,,---,0.00,VWS V14.00,2013-08-06 02:20:00,
2013-08-05 22:25:00,67.2,63.5,29.99,ESE,105,0.0,4.0,88,0.00,,---,0.00,VWS V14.00,2013-08-06 02:25:00,
2013-08-05 22:31:00,67.1,63.4,29.99,ESE,105,0.0,4.0,88,0.00,,---,0.00,VWS V14.00,2013-08-06 02:31:00,
2013-08-05 22:36:00,67.0,63.3,29.99,ESE,105,0.0,0.0,88,0.00,,---,0.00,VWS V14.00,2013-08-06 02:36:00,
2013-08-05 22:43:00,67.0,63.3,29.99,East,81,0.0,4.0,88,0.00,,---,0.00,VWS V14.00,2013-08-06 02:43:00,
2013-08-05 22:48:00,67.0,63.7,29.99,East,81,0.0,4.0,89,0.00,,---,0.00,VWS V14.00,2013-08-06 02:48:00,
2013-08-05 22:53:00,66.9,63.6,29.99,East,81,0.0,4.0,89,0.00,,---,0.00,VWS V14.00,2013-08-06 02:53:00,
2013-08-05 22:59:00,66.9,63.6,29.99,East,81,0.0,4.0,89,0.00,,---,0.00,VWS V14.00,2013-08-06 02:59:00,
2013-08-05 23:04:00,66.8,63.5,29.99,East,81,0.0,0.0,89,0.00,,---,0.00,VWS V14.00,2013-08-06 03:04:00,
2013-08-05 23:09:00,66.7,63.4,29.99,East,81,0.0,1.0,89,0.00,,---,0.00,VWS V14.00,2013-08-06 03:09:00,
2013-08-05 23:16:00,66.7,63.7,29.99,East,81,1.0,1.0,90,0.00,,---,0.00,VWS V14.00,2013-08-06 03:16:00,
2013-08-05 23:21:00,66.8,63.5,29.99,ESE,111,0.0,2.0,89,0.00,,---,0.00,VWS V14.00,2013-08-06 03:21:00,
2013-08-05 23:26:00,66.9,63.2,29.99,South,169,0.0,4.0,88,0.00,,---,0.00,VWS V14.00,2013-08-06 03:26:00,
2013-08-05 23:31:00,67.1,63.8,29.99,South,170,0.0,1.0,89,0.00,,---,0.00,VWS V14.00,2013-08-06 03:31:00,
2013-08-05 23:36:00,67.1,63.4,29.99,South,170,0.0,1.0,88,0.00,,---,0.00,VWS V14.00,2013-08-06 03:36:00,
2013-08-05 23:42:00,67.1,63.4,29.99,ESE,119,1.0,5.0,88,0.00,,---,0.00,VWS V14.00,2013-08-06 03:42:00,
2013-08-05 23:47:00,67.0,63.3,29.99,South,174,2.0,7.0,88,0.00,,---,0.00,VWS V14.00,2013-08-06 03:47:00,
2013-08-05 23:52:00,67.0,63.3,29.99,South,174,4.0,8.0,88,0.00,,---,0.00,VWS V14.00,2013-08-06 03:52:00,
2013-08-05 23:58:00,67.0,63.3,29.99,SSW,194,3.0,8.0,88,0.00,,---,0.00,VWS V14.00,2013-08-06 03:58:00,